User: anonymous   Login
Location: Unspecified
(0.0000°N, 0.0000°E)
Time: 22:40:09
(UTC+02:00)
Language:

GPS 2-05 Rocket1 - Orbit

View from above orbital plane
View from above orbital plane
View from above satellite
View from above satellite

Ground track
Ground track

The orbit data is extracted from the following two-line orbital elements,

1 20362U 89097B   14297.50758850  .00021689  00000-0  71942-3 0  5524
2 20362 035.6219 314.7671 0105971 173.9616 315.8453 15.25053607350625
Epoch (UTC): 24 October 2014 12:10:55
Eccentricity: 0.0105971
inclination: 35.6219°
perigee height: 418 km
apogee height: 563 km
right ascension of ascending node: 314.7671°
argument of perigee: 173.9616°
revolutions per day: 15.25053607
mean anomaly at epoch: 315.8453°
orbit number at epoch: 35062

The dashed part of the orbit path shows where the satellite is in the earth's shadow,  

DLR